GW6716 Weather Reports


time (UTC)temp
C
wind
direction
speed
KPH
gust
KPH
rain 1hr
cm
rain 24hr
cm
rain mn
cm
humidity
%
barometer
mb
20260504100320 7 170 0.0 1.6 0.00 0.00 0.00 84 1016.6
20260504081714 8 156 0.0 1.6 0.00 0.00 0.00 77 1016.5
20260504081210 8 184 0.0 1.6 0.00 0.00 0.00 76 1016.6
20260504080707 8 145 0.0 0.0 0.00 0.00 0.00 75 1016.6
20260504080203 8 183 0.0 0.0 0.00 0.00 0.00 75 1016.5
20260504070131 9 215 0.0 0.0 0.00 0.00 0.00 72 1016.5
20260504050520 9 243 4.8 4.8 0.00 0.00 0.00 65 1016.6
20260504050017 9 227 0.0 1.6 0.00 0.00 0.00 67 1016.5
20260504045513 9 224 0.0 1.6 0.00 0.00 0.00 66 1016.6
20260504045009 10 227 3.2 3.2 0.00 0.00 0.00 66 1016.5
20260504044506 10 207 0.0 1.6 0.00 0.00 0.00 68 1016.5
20260504044003 10 130 1.6 1.6 0.00 0.00 0.00 66 1016.4
20260504043500 10 225 3.2 3.2 0.00 0.00 0.00 67 1016.5
20260504042958 10 221 3.2 3.2 0.00 0.00 0.00 68 1016.4
20260504042454 10 216 1.6 1.6 0.00 0.00 0.00 73 1016.4
20260504041951 10 223 1.6 1.6 0.00 0.00 0.00 74 1016.3
20260504041447 10 222 1.6 1.6 0.00 0.00 0.00 73 1016.2
20260504040943 10 240 1.6 1.6 0.00 0.00 0.00 72 1016.0
20260504040441 10 147 0.0 0.0 0.00 0.00 0.00 71 1016.1
20260504035937 10 231 1.6 1.6 0.00 0.00 0.00 69 1016.1
20260504035435 10 244 1.6 3.2 0.00 0.00 0.00 70 1016.0
20260504034931 10 258 4.8 4.8 0.00 0.00 0.00 69 1016.0
20260504034429 10 221 1.6 1.6 0.00 0.00 0.00 65 1016.1
20260504033925 10 228 0.0 0.0 0.00 0.00 0.00 60 1015.9
20260504033423 11 219 0.0 0.0 0.00 0.00 0.00 57 1015.9
20260504032920 11 222 0.0 1.6 0.00 0.00 0.00 56 1015.8
20260504032417 11 239 3.2 3.2 0.00 0.00 0.00 56 1016.0
20260504031914 11 234 1.6 1.6 0.00 0.00 0.00 57 1015.9
20260504031411 11 238 0.0 0.0 0.00 0.00 0.00 59 1015.9
20260504030907 10 223 3.2 4.8 0.00 0.00 0.00 59 1015.7
20260504030404 11 188 0.0 0.0 0.00 0.00 0.00 59 1015.7
20260504025900 11 230 1.6 1.6 0.00 0.00 0.00 58 1015.7
20260504025357 11 273 1.6 1.6 0.00 0.00 0.00 58 1015.8
20260504024854 11 212 0.0 0.0 0.00 0.00 0.00 57 1015.8
20260504024350 11 215 0.0 0.0 0.00 0.00 0.00 56 1015.7
20260504023848 11 200 0.0 0.0 0.00 0.00 0.00 56 1015.5
20260504023344 11 200 0.0 0.0 0.00 0.00 0.00 55 1016.0
20260504022840 11 208 0.0 0.0 0.00 0.00 0.00 54 1015.7
20260504022337 11 241 1.6 1.6 0.00 0.00 0.00 53 1015.6
20260504021833 11 246 1.6 1.6 0.00 0.00 0.00 52 1015.6
20260504021331 11 218 0.0 0.0 0.00 0.00 0.00 51 1016.0
20260504020828 11 228 0.0 0.0 0.00 0.00 0.00 50 1015.8
20260504020324 11 220 1.6 1.6 0.00 0.00 0.00 49 1015.9
20260504015820 11 210 0.0 0.0 0.00 0.00 0.00 49 1015.8
20260504015317 11 211 0.0 0.0 0.00 0.00 0.00 49 1015.9
20260504014813 11 247 1.6 1.6 0.00 0.00 0.00 47 1015.7
20260504014309 11 191 0.0 0.0 0.00 0.00 0.00 48 1015.9
20260504013807 11 192 0.0 0.0 0.00 0.00 0.00 46 1015.7
20260504013305 12 214 0.0 0.0 0.00 0.00 0.00 44 1015.7
20260504012801 12 229 0.0 0.0 0.00 0.00 0.00 44 1015.5
20260504012259 12 215 0.0 0.0 0.00 0.00 0.00 43 1015.5
20260504011755 12 225 0.0 1.6 0.00 0.00 0.00 44 1015.3
20260504011252 12 184 0.0 0.0 0.00 0.00 0.00 44 1015.4
20260504010748 12 202 0.0 0.0 0.00 0.00 0.00 45 1015.4
20260504010244 12 142 0.0 0.0 0.00 0.00 0.00 44 1015.5
20260504005741 12 155 0.0 0.0 0.00 0.00 0.00 44 1015.4
20260504005238 12 222 1.6 1.6 0.00 0.00 0.00 42 1015.2
20260504004736 12 249 0.0 1.6 0.00 0.00 0.00 41 1015.1
20260504004232 12 216 0.0 1.6 0.00 0.00 0.00 42 1015.0
20260504003729 12 231 4.8 4.8 0.00 0.00 0.00 42 1015.0
20260504003226 12 232 1.6 3.2 0.00 0.00 0.00 43 1015.1
20260504002723 12 199 0.0 0.0 0.00 0.00 0.00 43 1015.0
20260504002220 12 236 0.0 0.0 0.00 0.00 0.00 41 1015.0
20260504001718 13 225 0.0 0.0 0.00 0.00 0.00 41 1014.6
20260504001214 13 231 0.0 1.6 0.00 0.00 0.00 41 1014.6
20260504000711 13 205 0.0 0.0 0.00 0.00 0.00 40 1014.7
20260504000208 13 284 0.0 1.6 0.00 0.00 0.00 41 1014.6
20260503235706 13 187 0.0 0.0 0.00 0.00 0.00 41 1014.3
20260503235203 13 248 0.0 0.0 0.00 0.00 0.00 40 1014.5
20260503234701 13 183 0.0 0.0 0.00 0.00 0.00 39 1014.5
20260503234159 13 234 0.0 1.6 0.00 0.00 0.00 39 1014.4
20260503233655 14 245 1.6 1.6 0.00 0.00 0.00 38 1014.3
20260503233151 14 280 1.6 3.2 0.00 0.00 0.00 37 1014.4
20260503232648 14 240 0.0 1.6 0.00 0.00 0.00 36 1014.5
20260503232145 14 272 0.0 1.6 0.00 0.00 0.00 37 1014.5
20260503231644 15 106 4.8 6.4 0.00 0.00 0.00 36 1014.4
20260503231139 15 271 1.6 1.6 0.00 0.00 0.00 37 1014.4
20260503230636 15 238 6.4 9.7 0.00 0.00 0.00 35 1014.2
20260503230134 15 244 1.6 3.2 0.00 0.00 0.00 36 1014.2
20260503225631 15 240 3.2 4.8 0.00 0.00 0.00 36 1014.2
20260503225131 15 260 4.8 4.8 0.00 0.00 0.00 35 1014.1
20260503224628 15 140 0.0 0.0 0.00 0.00 0.00 35 1014.0
20260503224126 15 232 1.6 3.2 0.00 0.00 0.00 35 1014.3
20260503223624 15 273 1.6 3.2 0.00 0.00 0.00 34 1014.2
20260503223120 15 266 4.8 4.8 0.00 0.00 0.00 34 1014.3
20260503222617 15 200 1.6 1.6 0.00 0.00 0.00 34 1014.2
20260503222115 16 256 4.8 4.8 0.00 0.00 0.00 33 1014.2
20260503221613 16 221 3.2 4.8 0.00 0.00 0.00 32 1014.3
20260503221110 16 235 8.0 11.3 0.00 0.00 0.00 32 1014.4
20260503220607 16 286 6.4 9.7 0.00 0.00 0.00 32 1014.4
20260503220104 16 333 4.8 6.4 0.00 0.00 0.00 33 1014.3
20260503215600 16 219 3.2 6.4 0.00 0.00 0.00 32 1014.3
20260503215057 16 231 4.8 11.3 0.00 0.00 0.00 32 1014.1
20260503214556 16 206 1.6 3.2 0.00 0.00 0.00 31 1014.3
20260503214052 16 231 4.8 6.4 0.00 0.00 0.00 32 1014.2
20260503213551 16 247 1.6 6.4 0.00 0.00 0.00 33 1014.2
20260503213047 16 78 3.2 4.8 0.00 0.00 0.00 32 1014.4
20260503212544 16 19 6.4 9.7 0.00 0.00 0.00 32 1014.2
20260503212042 16 242 6.4 9.7 0.00 0.00 0.00 30 1014.2
20260503211538 16 299 1.6 4.8 0.00 0.00 0.00 33 1014.4
20260503211034 16 193 6.4 9.7 0.00 0.00 0.00 30 1014.3
20260503210531 16 219 8.0 11.3 0.00 0.00 0.00 32 1014.3
20260503210027 16 291 3.2 4.8 0.00 0.00 0.00 33 1014.3
20260503205523 16 303 3.2 4.8 0.00 0.00 0.00 33 1014.3
20260503205020 16 203 3.2 4.8 0.00 0.00 0.00 33 1014.4
20260503204517 16 158 1.6 1.6 0.00 0.00 0.00 33 1014.4
20260503204014 15 277 9.7 12.9 0.00 0.00 0.00 33 1014.4
20260503203511 15 198 3.2 4.8 0.00 0.00 0.00 34 1014.4
20260503203008 16 297 12.9 16.1 0.00 0.00 0.00 33 1014.4
20260503202506 16 215 4.8 9.7 0.00 0.00 0.00 34 1014.3
20260503202004 15 287 6.4 12.9 0.00 0.00 0.00 34 1014.6
20260503201501 14 274 1.6 1.6 0.00 0.00 0.00 35 1014.5
20260503200959 15 220 9.7 11.3 0.00 0.00 0.00 34 1014.6
20260503200455 16 356 1.6 3.2 0.00 0.00 0.00 36 1014.7
20260503195951 16 222 4.8 9.7 0.00 0.00 0.00 34 1014.8
20260503195449 15 140 1.6 3.2 0.00 0.00 0.00 37 1014.8
20260503194945 15 288 1.6 3.2 0.00 0.00 0.00 36 1014.8
20260503194443 15 258 6.4 11.3 0.00 0.00 0.00 35 1014.7
20260503193937 15 235 11.3 17.7 0.00 0.00 0.00 35 1014.8
20260503193433 15 252 1.6 3.2 0.00 0.00 0.00 36 1014.8
20260503192929 14 269 4.8 9.7 0.00 0.00 0.00 36 1015.0
20260503192426 15 220 4.8 6.4 0.00 0.00 0.00 36 1014.9
20260503191921 14 221 6.4 11.3 0.00 0.00 0.00 35 1015.1
20260503191419 15 193 6.4 9.7 0.00 0.00 0.00 35 1015.2
20260503190915 15 247 4.8 6.4 0.00 0.00 0.00 34 1015.3
20260503190413 15 293 4.8 4.8 0.00 0.00 0.00 36 1015.1
20260503185909 14 311 0.0 3.2 0.00 0.00 0.00 35 1015.3
20260503185406 15 274 4.8 4.8 0.00 0.00 0.00 34 1015.2
20260503184905 14 284 6.4 9.7 0.00 0.00 0.00 35 1015.3
20260503184402 15 299 4.8 6.4 0.00 0.00 0.00 34 1015.3
20260503183858 14 215 9.7 16.1 0.00 0.00 0.00 35 1015.3
20260503183355 13 301 16.1 24.1 0.00 0.00 0.00 36 1015.4
20260503182852 14 288 3.2 6.4 0.00 0.00 0.00 35 1015.5
20260503182351 13 283 6.4 11.3 0.00 0.00 0.00 36 1015.5
20260503181848 13 238 9.7 11.3 0.00 0.00 0.00 34 1015.5
20260503181345 14 246 8.0 11.3 0.00 0.00 0.00 35 1015.4
20260503180841 13 214 9.7 14.5 0.00 0.00 0.00 34 1015.4
20260503180339 13 240 3.2 6.4 0.00 0.00 0.00 35 1015.5
20260503175835 15 275 6.4 6.4 0.00 0.00 0.00 37 1015.5
20260503175334 14 210 4.8 6.4 0.00 0.00 0.00 36 1015.7
20260503174834 13 211 3.2 4.8 0.00 0.00 0.00 36 1015.5
20260503174334 13 106 1.6 3.2 0.00 0.00 0.00 38 1015.8
20260503173833 13 209 3.2 3.2 0.00 0.00 0.00 37 1015.5
20260503173330 13 106 8.0 12.9 0.00 0.00 0.00 36 1015.5
20260503172827 13 296 11.3 12.9 0.00 0.00 0.00 35 1015.6
20260503172325 13 276 6.4 11.3 0.00 0.00 0.00 36 1015.8
20260503171820 12 225 8.0 11.3 0.00 0.00 0.00 36 1015.8
20260503171318 13 287 3.2 3.2 0.00 0.00 0.00 37 1015.9
20260503170815 12 142 0.0 1.6 0.00 0.00 0.00 41 1015.8
20260503170311 12 267 6.4 9.7 0.00 0.00 0.00 38 1016.2
20260503150704 10 217 3.2 4.8 0.00 0.00 0.00 47 1016.4
20260503150200 10 4 4.8 6.4 0.00 0.00 0.00 50 1016.5
20260503140124 10 150 0.0 1.6 0.00 0.00 0.00 50 1016.3
20260503131053 9 276 8.0 9.7 0.00 0.00 0.00 56 1016.2
20260503130550 8 267 3.2 6.4 0.00 0.00 0.00 58 1016.1
20260503110441 6 246 0.0 1.6 0.00 0.00 0.00 70 1015.2